« Back
NWS Peachtree City, Ga » Text Product » GA Regional Weather Roundup


Printer-friendly Version
Current Version              Previous Versions:   1  2  3  4  5  6  7  8  9  

Regional Weather Roundup

110
ASUS42 KFFC 040603
RWRGA
WEATHER ROUNDUP FOR GEORGIA
NATIONAL WEATHER SERVICE PEACHTREE CITY GA
200 AM EDT WED MAY 04 2016

NOTE: "FAIR" INDICATES FEW OR NO CLOUDS BELOW 12,000 FEET WITH NO
SIGNIFICANT WEATHER AND/OR OBSTRUCTIONS TO VISIBILITY.

* = USE WITH CAUTION. THE STATIONS MARKED WITH AN ASTERISK MAY NOT
REPORT WEATHER SUCH AS PRECIPITATION, FOG, OR THUNDER AND ARE NOT
QUALITY CONTROLLED BY NWS.

THE REMARK "TC" DENOTES TEMPERATURE READING IN DEGREES CELSIUS.

GAZ001>058-040700-
NORTH GEORGIA

CITY           SKY/WX    TMP DP  RH WIND       PRES   REMARKS
ATLANTA        PTCLDY    60  51  72 NW9       29.84F
6HR MIN TEMP:  60; 6HR MAX TEMP:  71;

ATHENS         PTCLDY    61  53  75 NW6       29.80F
6HR MIN TEMP:  61; 6HR MAX TEMP:  73;

CHAMBLEE       CLEAR     59  52  77 NW6       29.84S
6HR MIN TEMP:  59; 6HR MAX TEMP:  71;

PEACHTREE CITY CLEAR     59  54  83 NW6       29.86S
6HR MIN TEMP:  59; 6HR MAX TEMP:  72;

ROME           CLOUDY    61  49  64 NW6       29.87S
6HR MIN TEMP:  60; 6HR MAX TEMP:  70;

WEST ATLANTA   CLEAR     58  51  78 NW5       29.85S
6HR MIN TEMP:  58; 6HR MAX TEMP:  71;

GAINESVILLE    CLEAR     58  49  72 NW5       29.84F
6HR MIN TEMP:  58; 6HR MAX TEMP:  69;

CARTERSVILLE   CLOUDY    59  52  77 CALM      29.87S
6HR MIN TEMP:  59; 6HR MAX TEMP:  68;



CITY           SKY/WX    TMP DP  RH WIND       PRES   REMARKS
DALTON*        CLOUDY    59  50  72 NW6       29.87S
MARIETTA       CLEAR     59  50  72 NW9       29.85S
CANTON*        MOCLDY    57  46  67 W8        29.86S
BLAIRSVILLE*     N/A    N/A N/A N/A MISG      29.87S
$$

GAZ059>098-102>109-040700-
CENTRAL GEORGIA

CITY           SKY/WX    TMP DP  RH WIND       PRES   REMARKS
AUGUSTA-BUSH   MOCLDY    69  65  86 W6        29.77R
6HR MIN TEMP:  69; 6HR MAX TEMP:  75;

AUGUSTA-DANIEL PTCLDY    70  62  76 CALM      29.78S
6HR MIN TEMP:  70; 6HR MAX TEMP:  75;

COLUMBUS       MOCLDY    64  56  75 NW6       29.85S
6HR MIN TEMP:  64; 6HR MAX TEMP:  74;

MACON          CLOUDY    67  62  84 NW6       29.81F
6HR MIN TEMP:  67; 6HR MAX TEMP:  73;

ROBINS AFB     CLOUDY    69  61  75 NW9       29.80F


CITY           SKY/WX    TMP DP  RH WIND       PRES   REMARKS
LAGRANGE*      PTCLDY    63  59  87 NW5       29.86S
SYLVANIA*      PTCLDY    67  67 100 CALM      29.79S
MILLEDGEVILLE* CLOUDY    68  55  64 NW6       29.81S
$$

GAZ099>101-110>166-040700-
SOUTH GEORGIA

CITY           SKY/WX    TMP DP  RH WIND       PRES   REMARKS
SAVANNAH       CLOUDY    69  66  90 W3        29.79F
6HR MIN TEMP:  66; 6HR MAX TEMP:  82; 6HR PCP:  0.07;

VALDOSTA       CLOUDY    68  68 100 SW3       29.81F
6HR MIN TEMP:  68; 6HR MAX TEMP:  70; 6HR PCP:  0.27;

ALMA           CLOUDY    67  66  97 CALM      29.79F
6HR MIN TEMP:  65; 6HR MAX TEMP:  70; 6HR PCP:  0.05;

ST SIMONS      MOCLDY    73  68  84 W7        29.79F
6HR MIN TEMP:  73; 6HR MAX TEMP:  81; 6HR PCP: TRACE;

FT STEWART     CLOUDY    69  65  87 SW5       29.77F
ALBANY         CLOUDY    68  67  96 CALM      29.84F
HUNTER AFB     CLOUDY    69  69 100 SW7       29.76F
MOODY AFB      CLOUDY    68  66  93 W3        29.80F
BRUNSWICK      LGT RAIN  77  72  83 SW6       29.80F


CITY           SKY/WX    TMP DP  RH WIND       PRES   REMARKS
BAINBRIDGE*    PTCLDY    72  70  94 W5        29.84S
MOULTRIE*      MOCLDY    70  68  94 CALM      29.83F
VIDALIA*       PTCLDY    68  64  88 SW6       29.81S
WAYCROSS*      CLOUDY    68  68 100 CALM      29.80F
DOUGLAS*       PTCLDY    70  68  94 SW3       29.82F
$$




USA.gov is the U.S. government's official web portal to all federal, state and local government web resources and services.